Minot AFB, ND

6:16 PM CST on December 07, 2019 (GMT -0600)
Minot Air Force Base

Weather History for KMIB - October, 2019

Change the Weather History Date:

Tuesday, October 22, 2019

  Actual Average Record
Temperature  
Mean Temperature 34 °F -  
Max Temperature 43 °F 48 °F 73 °F (1998)
Min Temperature 24 °F 28 °F 12 °F (1996)
Degree Days  
Heating Degree Days 32    
Moisture  
Dew Point 24 °F    
Average Humidity 73    
Maximum Humidity 89    
Minimum Humidity 48    
Precipitation  
Precipitation 0.00 in - - ()
Sea Level Pressure  
Sea Level Pressure 29.90 in    
Wind  
Wind Speed 9 mph (NNW)    
Max Wind Speed 16 mph    
Max Gust Speed 21 mph    
Visibility 9 miles    
Events      
Averages and records for this station are not official NWS values.
T = Trace of Precipitation, MM = Missing Value Source: NWS Daily Summary

Daily Weather History Graph

Daily Weather History Graph

Search for Another Location

Airport or City:

Astronomy

Oct. 22, 2019 Rise Set
Actual Time 8:15 AM CDT 6:43 PM CDT
Civil Twilight 7:43 AM CDT 7:15 PM CDT
Nautical Twilight 7:07 AM CDT 7:51 PM CDT
Astronomical Twilight 6:30 AM CDT 8:27 PM CDT
Moon 12:47 AM CDT (10/22) 4:30 PM CDT (10/22)
Length of Visible Light 11h 31m
Length of Day
10h 27m
Last Quarter, 37% of the Moon is Illuminated
Oct 22
Last Quarter
Oct 27
New
Nov 4
First Quarter
Nov 12
Full
Nov 19
Last Quarter

Hourly Weather History & Observations

Time (CDT) Temp. Windchill Dew Point Humidity Pressure Visibility Wind Dir Wind Speed Gust Speed Precip Events Conditions
12:56 AM 28.2 °F 19.5 °F 24.6 °F 86% 29.99 in 10.0 mi WNW 9.2 mph - N/A   Clear
2:56 AM 27.3 °F 17.7 °F 23.9 °F 87% 29.97 in 10.0 mi NW 10.4 mph - N/A   Clear
3:56 AM 27.1 °F 18.9 °F 24.1 °F 88% 29.97 in 10.0 mi NW 8.1 mph - N/A   Clear
4:56 AM 26.6 °F 19.1 °F 23.5 °F 88% 29.96 in 10.0 mi WNW 6.9 mph - N/A   Clear
5:56 AM 26.6 °F 19.1 °F 23.5 °F 88% 29.95 in 10.0 mi WNW 6.9 mph - N/A   Mostly Cloudy
6:56 AM 26.6 °F 19.1 °F 23.5 °F 88% 29.95 in 10.0 mi WNW 6.9 mph - N/A   Scattered Clouds
7:56 AM 24.8 °F 16.1 °F 21.9 °F 89% 29.95 in 10.0 mi NW 8.1 mph - N/A   Clear
8:56 AM 27.1 °F 18.2 °F 24.1 °F 88% 29.95 in 10.0 mi NW 9.2 mph - N/A   Clear
9:56 AM 31.5 °F 22.3 °F 26.6 °F 82% 29.95 in 9.0 mi NW 11.5 mph - N/A   Clear
10:56 AM 33.8 °F 26.4 °F 26.8 °F 75% 29.94 in 10.0 mi NNW 9.2 mph - N/A   Scattered Clouds
11:56 AM 37.6 °F 30.5 °F 26.4 °F 64% 29.92 in 10.0 mi NNW 10.4 mph - N/A   Haze
12:56 PM 39.7 °F 32.3 °F 27.3 °F 61% 29.90 in 10.0 mi NNW 12.7 mph - N/A   Haze
1:56 PM 41.0 °F 33.5 °F 26.4 °F 56% 29.88 in 10.0 mi NNW 13.8 mph - N/A   Clear
2:56 PM 42.3 °F 35.1 °F 25.9 °F 52% 29.87 in 9.0 mi NW 13.8 mph - N/A   Clear
3:56 PM 43.0 °F 35.4 °F 25.2 °F 49% 29.85 in 10.0 mi NNW 16.1 mph 20.7 mph N/A   Clear
4:56 PM 42.8 °F 36.6 °F 24.4 °F 48% 29.85 in 9.0 mi North 11.5 mph - N/A   Clear
5:56 PM 39.7 °F 35.6 °F 23.0 °F 51% 29.85 in 10.0 mi North 5.8 mph - N/A   Clear
6:56 PM 35.4 °F 29.7 °F 23.4 °F 62% 29.86 in 9.0 mi NNE 6.9 mph - N/A   Clear
7:56 PM 34.5 °F 31.6 °F 23.5 °F 64% 29.85 in 5.0 mi NE 3.5 mph - N/A   Haze
8:26 PM 33.8 °F - 23.0 °F 65% 29.86 in 2.5 mi Calm Calm - N/A   Haze
8:36 PM 32.0 °F 28.7 °F 24.8 °F 75% 29.86 in 3.0 mi NNW 3.5 mph - N/A   Haze
8:56 PM 30.7 °F 27.3 °F 24.4 °F 77% 29.85 in 2.8 mi North 3.5 mph - N/A   Haze
9:56 PM 29.1 °F 24.1 °F 24.3 °F 82% 29.86 in 10.0 mi North 4.6 mph - N/A   Haze
10:56 PM 29.3 °F 22.3 °F 22.6 °F 76% 29.86 in 10.0 mi North 6.9 mph - N/A   Haze
11:26 PM 30.2 °F 26.7 °F 23.0 °F 75% 29.85 in 2.5 mi North 3.5 mph - N/A   Haze
11:36 PM 30.2 °F 23.4 °F 23.0 °F 75% 29.85 in 10.0 mi North 6.9 mph - N/A   Clear
11:56 PM 29.8 °F 23.0 °F 21.9 °F 72% 29.86 in 10.0 mi North 6.9 mph - N/A   Clear